User: anonymous   Login
Location: ??????
(38.3184°N, 23.6932°E)
Time: 15:14:55
(UTC+00:00)
Language:

Cosmos 1727 Rocket - Orbit

View from above orbital plane
View from above orbital plane
View from above satellite
View from above satellite

Ground track
Ground track

The orbit data is extracted from the following two-line orbital elements,

1 16511U 86008B   22019.82531554  .00000123  00000-0  11114-3 0  9990
2 16511  82.9424  55.7569 0022694 276.3996 257.0772 13.75802180806691
Epoch (UTC): 19 January 2022 19:48:27
Eccentricity: 0.0022694
inclination: 82.9424°
perigee height: 962 km
apogee height: 995 km
right ascension of ascending node: 55.7569°
argument of perigee: 276.3996°
revolutions per day: 13.75802180
mean anomaly at epoch: 257.0772°
orbit number at epoch: 80669

The dashed part of the orbit path shows where the satellite is in the earth's shadow,  

DLR